ASX707 KSAC-KSMO

Flight info

Callsign ASX707
Flight time 1h 15m
Altitude 25000
Route SAC SAC090043 FRA J7 FIM FERN7
Aircraft SF50/L-SDGRWY/L

Departure

Time 2026-04-22 19:57
Airport Sacramento Executive Airport (KSAC)

Arrival

Time 2026-04-22 21:12
Airport Santa Monica Municipal Airport (KSMO)
Time Latitude Longitude Altitude Speed Heading
2026-04-22 19:49 38.51370 -121.49737 22 ft 0 kts 213°
2026-04-22 19:53 38.51349 -121.49727 22 ft 14 kts 121°
2026-04-22 19:53 38.51360 -121.49596 23 ft 10 kts 93°
2026-04-22 19:54 38.51369 -121.49523 23 ft 1 kts 37°
2026-04-22 19:54 38.51421 -121.49494 25 ft 0 kts 31°
2026-04-22 19:55 38.51481 -121.49445 25 ft 20 kts 34°
2026-04-22 19:55 38.51629 -121.49321 29 ft 23 kts 31°
2026-04-22 19:55 38.51762 -121.49210 28 ft 27 kts 33°
2026-04-22 19:55 38.51903 -121.49093 28 ft 21 kts 33°
2026-04-22 19:56 38.51915 -121.49020 27 ft 12 kts 101°
2026-04-22 19:56 38.51879 -121.48959 27 ft 8 kts 196°
2026-04-22 19:56 38.51763 -121.49043 29 ft 36 kts 213°
2026-04-22 19:56 38.51159 -121.49554 61 ft 111 kts 214°
2026-04-22 19:57 38.50503 -121.50205 352 ft 131 kts 216°
2026-04-22 19:57 38.49981 -121.50736 591 ft 148 kts 217°
2026-04-22 19:57 38.49079 -121.51450 1184 ft 160 kts 204°
2026-04-22 19:57 38.48037 -121.52130 1679 ft 176 kts 208°
2026-04-22 19:58 38.46843 -121.52655 2153 ft 189 kts 185°
2026-04-22 19:58 38.45500 -121.52490 2676 ft 202 kts 164°
2026-04-22 19:58 38.44248 -121.51555 3168 ft 220 kts 139°
2026-04-22 19:58 38.43410 -121.49853 3612 ft 236 kts 110°
2026-04-22 19:59 38.43033 -121.47797 4069 ft 245 kts 103°
2026-04-22 20:00 38.40727 -121.34939 7486 ft 240 kts 104°
2026-04-22 20:00 38.40347 -121.32846 7932 ft 243 kts 104°
2026-04-22 20:01 38.39964 -121.30740 8424 ft 244 kts 104°
2026-04-22 20:01 38.39580 -121.28629 8944 ft 245 kts 104°
2026-04-22 20:01 38.39198 -121.26536 9465 ft 245 kts 104°
2026-04-22 20:01 38.38812 -121.24420 9998 ft 244 kts 104°
2026-04-22 20:02 38.38427 -121.22310 10495 ft 244 kts 104°
2026-04-22 20:02 38.38045 -121.20207 10991 ft 243 kts 103°
2026-04-22 20:02 38.37662 -121.18112 11454 ft 243 kts 103°
2026-04-22 20:02 38.37277 -121.16006 11905 ft 244 kts 103°
2026-04-22 20:03 38.36891 -121.13897 12371 ft 245 kts 103°
2026-04-22 20:03 38.36504 -121.11781 12856 ft 245 kts 103°
2026-04-22 20:03 38.36120 -121.09690 13309 ft 246 kts 103°
2026-04-22 20:03 38.35730 -121.07571 13795 ft 246 kts 103°
2026-04-22 20:04 38.35340 -121.05445 14251 ft 246 kts 103°
2026-04-22 20:04 38.34947 -121.03306 14609 ft 249 kts 103°
2026-04-22 20:04 38.34548 -121.01146 14968 ft 252 kts 103°
2026-04-22 20:04 38.34146 -120.98961 15334 ft 254 kts 103°
2026-04-22 20:05 38.33738 -120.96763 15705 ft 256 kts 103°
2026-04-22 20:05 38.33326 -120.94542 16084 ft 259 kts 103°
2026-04-22 20:05 38.32911 -120.92305 16484 ft 260 kts 104°
2026-04-22 20:05 38.32494 -120.90054 16861 ft 262 kts 103°
2026-04-22 20:06 38.32076 -120.87790 17242 ft 263 kts 104°
2026-04-22 20:06 38.31650 -120.85521 17641 ft 264 kts 104°
2026-04-22 20:06 38.31225 -120.83239 18036 ft 265 kts 104°
2026-04-22 20:06 38.30800 -120.80954 18441 ft 265 kts 104°
2026-04-22 20:07 38.30375 -120.78673 18803 ft 265 kts 104°
2026-04-22 20:07 38.29955 -120.76423 19145 ft 264 kts 104°
2026-04-22 20:07 38.29528 -120.74156 19493 ft 262 kts 104°
2026-04-22 20:07 38.29111 -120.71904 19846 ft 261 kts 104°
2026-04-22 20:08 38.28696 -120.69662 20203 ft 257 kts 105°
2026-04-22 20:08 38.28181 -120.67516 20546 ft 246 kts 122°
2026-04-22 20:08 38.27264 -120.65741 20923 ft 234 kts 143°
2026-04-22 20:08 38.26097 -120.64424 21293 ft 216 kts 161°
2026-04-22 20:09 38.24879 -120.63324 21668 ft 214 kts 160°
2026-04-22 20:09 38.23694 -120.62197 22055 ft 211 kts 160°
2026-04-22 20:09 38.22533 -120.61119 22422 ft 208 kts 161°
2026-04-22 20:09 38.21383 -120.60048 22808 ft 202 kts 162°
2026-04-22 20:10 38.20265 -120.59015 23197 ft 195 kts 164°
2026-04-22 20:10 38.19192 -120.58026 23565 ft 186 kts 165°
2026-04-22 20:10 38.18179 -120.57082 23916 ft 175 kts 167°
2026-04-22 20:10 38.17220 -120.56204 24215 ft 165 kts 169°
2026-04-22 20:11 38.16328 -120.55377 24503 ft 152 kts 172°
2026-04-22 20:11 38.15460 -120.54609 24618 ft 155 kts 172°
2026-04-22 20:11 38.14587 -120.53795 24833 ft 153 kts 170°
2026-04-22 20:11 38.13714 -120.53009 24941 ft 156 kts 172°
2026-04-22 20:12 38.12841 -120.52195 25117 ft 159 kts 170°
2026-04-22 20:12 38.11881 -120.51316 25041 ft 183 kts 167°
2026-04-22 20:12 38.10831 -120.50347 25236 ft 187 kts 164°
2026-04-22 20:12 38.09781 -120.49276 25285 ft 204 kts 159°
2026-04-22 20:13 38.08588 -120.48097 25099 ft 227 kts 162°
2026-04-22 20:13 38.07273 -120.47026 25247 ft 225 kts 166°
2026-04-22 20:13 38.05920 -120.45951 25272 ft 240 kts 165°
2026-04-22 20:13 38.04445 -120.44830 25268 ft 254 kts 164°
2026-04-22 20:14 38.02898 -120.43541 25266 ft 277 kts 158°
2026-04-22 20:14 38.01316 -120.42020 25264 ft 292 kts 155°
2026-04-22 20:14 37.99669 -120.40438 25263 ft 301 kts 156°
2026-04-22 20:14 37.97944 -120.38868 25258 ft 308 kts 156°
2026-04-22 20:15 37.96177 -120.37266 25253 ft 316 kts 156°
2026-04-22 20:15 37.94380 -120.35607 25248 ft 323 kts 155°
2026-04-22 20:15 37.92549 -120.33909 25247 ft 327 kts 155°
2026-04-22 20:15 37.90695 -120.32208 25241 ft 331 kts 155°
2026-04-22 20:16 37.88816 -120.30489 25245 ft 335 kts 155°
2026-04-22 20:16 37.86922 -120.28750 25238 ft 338 kts 155°
2026-04-22 20:16 37.85005 -120.26992 25239 ft 342 kts 154°
2026-04-22 20:16 37.83069 -120.25220 25238 ft 345 kts 154°
2026-04-22 20:17 37.81141 -120.23457 25235 ft 348 kts 154°
2026-04-22 20:17 37.79171 -120.21656 25239 ft 350 kts 154°
2026-04-22 20:17 37.77183 -120.19836 25230 ft 353 kts 154°
2026-04-22 20:17 37.75186 -120.18013 25235 ft 356 kts 154°
2026-04-22 20:18 37.73170 -120.16176 25227 ft 358 kts 154°
2026-04-22 20:18 37.71155 -120.14336 25226 ft 356 kts 154°
2026-04-22 20:18 37.69141 -120.12496 25223 ft 357 kts 154°
2026-04-22 20:18 37.67131 -120.10669 25222 ft 356 kts 154°
2026-04-22 20:19 37.65128 -120.08847 25225 ft 354 kts 154°
2026-04-22 20:19 37.63151 -120.07049 25217 ft 355 kts 154°
2026-04-22 20:19 37.61152 -120.05233 25233 ft 353 kts 154°
2026-04-22 20:19 37.59154 -120.03419 25227 ft 355 kts 154°
2026-04-22 20:20 37.57150 -120.01600 25228 ft 356 kts 154°
2026-04-22 20:20 37.55143 -119.99778 25227 ft 356 kts 154°
2026-04-22 20:20 37.53133 -119.97957 25225 ft 356 kts 154°
2026-04-22 20:20 37.51120 -119.96131 25226 ft 356 kts 154°
2026-04-22 20:21 37.49110 -119.94312 25224 ft 356 kts 154°
2026-04-22 20:21 37.47097 -119.92491 25227 ft 356 kts 154°
2026-04-22 20:21 37.45083 -119.90669 25226 ft 356 kts 154°
2026-04-22 20:21 37.43070 -119.88850 25222 ft 356 kts 154°
2026-04-22 20:22 37.41054 -119.87031 25221 ft 356 kts 154°
2026-04-22 20:22 37.39044 -119.85217 25226 ft 356 kts 154°
2026-04-22 20:22 37.37058 -119.83424 25225 ft 355 kts 154°
2026-04-22 20:22 37.35027 -119.81594 25223 ft 354 kts 154°
2026-04-22 20:23 37.33048 -119.79817 25227 ft 354 kts 154°
2026-04-22 20:23 37.31042 -119.78009 25223 ft 353 kts 154°
2026-04-22 20:23 37.29046 -119.76210 25220 ft 352 kts 154°
2026-04-22 20:23 37.27050 -119.74420 25223 ft 352 kts 154°
2026-04-22 20:24 37.25051 -119.72627 25221 ft 353 kts 154°
2026-04-22 20:24 37.23053 -119.70835 25215 ft 353 kts 154°
2026-04-22 20:24 37.21047 -119.69035 25219 ft 354 kts 154°
2026-04-22 20:24 37.19043 -119.67239 25221 ft 354 kts 154°
2026-04-22 20:25 37.17040 -119.65445 25221 ft 353 kts 154°
2026-04-22 20:25 37.15042 -119.63657 25221 ft 353 kts 154°
2026-04-22 20:25 37.13043 -119.61934 25218 ft 347 kts 159°
2026-04-22 20:25 37.10898 -119.60669 25219 ft 335 kts 171°
2026-04-22 20:26 37.08690 -119.59904 25223 ft 324 kts 181°
2026-04-22 20:26 37.06481 -119.59616 25223 ft 312 kts 191°
2026-04-22 20:26 37.04341 -119.59660 25230 ft 307 kts 193°
2026-04-22 20:26 37.02200 -119.59702 25228 ft 308 kts 193°
2026-04-22 20:27 37.00064 -119.59723 25229 ft 304 kts 193°
2026-04-22 20:27 36.97956 -119.59757 25242 ft 303 kts 193°
2026-04-22 20:27 36.95843 -119.59802 25242 ft 304 kts 193°
2026-04-22 20:27 36.93718 -119.59840 25240 ft 306 kts 193°
2026-04-22 20:28 36.91624 -119.59870 25235 ft 304 kts 193°
2026-04-22 20:28 36.89500 -119.59906 25234 ft 305 kts 193°
2026-04-22 20:28 36.87377 -119.59947 25230 ft 306 kts 193°
2026-04-22 20:28 36.85247 -119.59983 25232 ft 306 kts 193°
2026-04-22 20:29 36.83111 -119.60019 25231 ft 307 kts 193°
2026-04-22 20:29 36.80971 -119.60056 25232 ft 308 kts 193°
2026-04-22 20:29 36.78825 -119.60092 25232 ft 308 kts 193°
2026-04-22 20:29 36.76672 -119.60130 25231 ft 309 kts 193°
2026-04-22 20:30 36.74523 -119.60166 25230 ft 309 kts 193°
2026-04-22 20:30 36.72375 -119.60203 25229 ft 309 kts 193°
2026-04-22 20:30 36.70246 -119.60239 25227 ft 309 kts 193°
2026-04-22 20:30 36.68094 -119.60276 25232 ft 309 kts 193°
2026-04-22 20:31 36.65937 -119.60314 25234 ft 309 kts 193°
2026-04-22 20:31 36.63785 -119.60352 25234 ft 309 kts 193°
2026-04-22 20:31 36.61627 -119.60388 25230 ft 309 kts 193°
2026-04-22 20:31 36.59471 -119.60425 25229 ft 309 kts 193°
2026-04-22 20:32 36.57318 -119.60463 25231 ft 309 kts 193°
2026-04-22 20:32 36.55168 -119.60501 25231 ft 309 kts 193°
2026-04-22 20:32 36.53043 -119.60537 25233 ft 309 kts 193°
2026-04-22 20:32 36.50893 -119.60574 25231 ft 309 kts 193°
2026-04-22 20:33 36.48741 -119.60611 25229 ft 309 kts 193°
2026-04-22 20:33 36.46591 -119.60649 25232 ft 309 kts 193°
2026-04-22 20:33 36.44443 -119.60686 25232 ft 309 kts 193°
2026-04-22 20:33 36.42293 -119.60723 25230 ft 309 kts 194°
2026-04-22 20:34 36.40148 -119.60759 25231 ft 309 kts 194°
2026-04-22 20:34 36.38003 -119.60796 25231 ft 309 kts 194°
2026-04-22 20:34 36.35852 -119.60833 25232 ft 309 kts 194°
2026-04-22 20:34 36.33701 -119.60868 25230 ft 309 kts 194°
2026-04-22 20:35 36.31553 -119.60905 25231 ft 308 kts 194°
2026-04-22 20:35 36.29404 -119.60942 25229 ft 308 kts 194°
2026-04-22 20:35 36.27260 -119.60977 25235 ft 308 kts 194°
2026-04-22 20:35 36.25143 -119.61012 25230 ft 308 kts 194°
2026-04-22 20:36 36.22995 -119.61048 25229 ft 308 kts 194°
2026-04-22 20:36 36.20851 -119.61085 25231 ft 308 kts 194°
2026-04-22 20:36 36.18701 -119.61123 25231 ft 308 kts 194°
2026-04-22 20:36 36.16559 -119.61160 25231 ft 308 kts 194°
2026-04-22 20:37 36.14413 -119.61195 25232 ft 308 kts 194°
2026-04-22 20:37 36.12266 -119.61230 25231 ft 308 kts 194°
2026-04-22 20:37 36.10121 -119.61268 25228 ft 308 kts 194°
2026-04-22 20:37 36.07980 -119.61303 25232 ft 308 kts 194°
2026-04-22 20:38 36.05837 -119.61341 25228 ft 308 kts 194°
2026-04-22 20:38 36.03696 -119.61377 25227 ft 308 kts 194°
2026-04-22 20:38 36.01552 -119.61414 25226 ft 308 kts 194°
2026-04-22 20:38 35.99413 -119.61450 25226 ft 308 kts 194°
2026-04-22 20:39 35.97298 -119.61488 25224 ft 307 kts 194°
2026-04-22 20:39 35.95163 -119.61566 25225 ft 306 kts 195°
2026-04-22 20:39 35.93036 -119.61666 25224 ft 306 kts 195°
2026-04-22 20:39 35.90899 -119.61749 25225 ft 307 kts 195°
2026-04-22 20:40 35.88763 -119.61820 25223 ft 307 kts 195°
2026-04-22 20:40 35.86633 -119.61898 25221 ft 306 kts 195°
2026-04-22 20:40 35.85221 -119.61952 25220 ft 306 kts 195°
2026-04-22 20:40 35.82370 -119.62060 25219 ft 306 kts 195°
2026-04-22 20:41 35.80241 -119.62138 25217 ft 306 kts 195°
2026-04-22 20:41 35.78107 -119.62218 25224 ft 306 kts 195°
2026-04-22 20:41 35.76017 -119.62352 25220 ft 304 kts 196°
2026-04-22 20:41 35.73883 -119.62404 25218 ft 307 kts 193°
2026-04-22 20:42 35.71745 -119.62430 25217 ft 306 kts 194°
2026-04-22 20:42 35.69621 -119.62513 25216 ft 305 kts 195°
2026-04-22 20:42 35.68189 -119.62582 25216 ft 305 kts 195°
2026-04-22 20:42 35.66063 -119.62667 25217 ft 306 kts 195°
2026-04-22 20:43 35.63961 -119.62736 25214 ft 306 kts 194°
2026-04-22 20:43 35.61830 -119.62811 25219 ft 306 kts 195°
2026-04-22 20:43 35.59699 -119.62893 25217 ft 306 kts 195°
2026-04-22 20:43 35.57566 -119.62972 25218 ft 306 kts 194°
2026-04-22 20:44 35.55430 -119.63049 25218 ft 307 kts 194°
2026-04-22 20:44 35.53291 -119.63069 25214 ft 313 kts 189°
2026-04-22 20:44 35.51106 -119.62386 25213 ft 336 kts 169°
2026-04-22 20:44 35.49091 -119.60835 25213 ft 358 kts 149°
2026-04-22 20:45 35.47313 -119.58663 25220 ft 361 kts 143°
2026-04-22 20:45 35.45575 -119.56425 25213 ft 362 kts 142°
2026-04-22 20:45 35.43800 -119.54260 25211 ft 359 kts 145°
2026-04-22 20:45 35.42022 -119.52094 25211 ft 362 kts 143°
2026-04-22 20:46 35.38600 -119.47529 25207 ft 363 kts 142°
2026-04-22 20:46 35.36860 -119.45296 25204 ft 362 kts 143°
2026-04-22 20:46 35.35112 -119.43074 25204 ft 362 kts 142°
2026-04-22 20:47 35.33401 -119.40853 25202 ft 363 kts 142°
2026-04-22 20:47 35.31671 -119.38599 25203 ft 363 kts 142°
2026-04-22 20:47 35.29935 -119.36359 25205 ft 363 kts 142°
2026-04-22 20:47 35.28193 -119.34120 25203 ft 362 kts 142°
2026-04-22 20:48 35.26460 -119.31885 25213 ft 361 kts 142°
2026-04-22 20:48 35.24718 -119.29653 24862 ft 365 kts 142°
2026-04-22 20:48 35.22970 -119.27390 24427 ft 365 kts 142°
2026-04-22 20:48 35.21231 -119.25131 24082 ft 364 kts 142°
2026-04-22 20:49 35.19484 -119.22892 23731 ft 364 kts 142°
2026-04-22 20:49 35.17733 -119.20650 23325 ft 364 kts 142°
2026-04-22 20:49 35.15988 -119.18404 22923 ft 364 kts 141°
2026-04-22 20:49 35.14246 -119.16162 22524 ft 364 kts 141°
2026-04-22 20:50 35.12497 -119.13919 22135 ft 364 kts 141°
2026-04-22 20:50 35.10750 -119.11680 21714 ft 363 kts 141°
2026-04-22 20:50 35.09004 -119.09442 21227 ft 363 kts 141°
2026-04-22 20:50 35.07266 -119.07214 20727 ft 362 kts 140°
2026-04-22 20:51 35.05532 -119.04994 20238 ft 359 kts 140°
2026-04-22 20:51 35.03834 -119.02823 19812 ft 355 kts 140°
2026-04-22 20:51 35.02124 -119.00638 19449 ft 357 kts 140°
2026-04-22 20:51 35.00415 -118.98457 19094 ft 355 kts 140°
2026-04-22 20:52 34.98718 -118.96286 18745 ft 352 kts 140°
2026-04-22 20:52 34.97023 -118.94126 18374 ft 351 kts 140°
2026-04-22 20:52 34.95337 -118.91978 17989 ft 349 kts 140°
2026-04-22 20:52 34.93661 -118.89843 17587 ft 347 kts 139°
2026-04-22 20:53 34.91998 -118.87727 17187 ft 345 kts 139°
2026-04-22 20:53 34.90364 -118.85646 16805 ft 342 kts 139°
2026-04-22 20:53 34.88723 -118.83553 16433 ft 341 kts 139°
2026-04-22 20:53 34.87087 -118.81479 16048 ft 339 kts 139°
2026-04-22 20:54 34.85456 -118.79415 15681 ft 337 kts 139°
2026-04-22 20:54 34.83838 -118.77359 15306 ft 335 kts 139°
2026-04-22 20:54 34.82224 -118.75309 14822 ft 336 kts 139°
2026-04-22 20:54 34.80594 -118.73248 14349 ft 339 kts 139°
2026-04-22 20:55 34.78957 -118.71174 13870 ft 339 kts 139°
2026-04-22 20:55 34.77337 -118.69118 13433 ft 335 kts 138°
2026-04-22 20:55 34.75726 -118.67079 13052 ft 332 kts 138°
2026-04-22 20:55 34.74129 -118.65061 12688 ft 331 kts 138°
2026-04-22 20:56 34.72535 -118.63048 12333 ft 328 kts 138°
2026-04-22 20:56 34.70957 -118.61059 11976 ft 325 kts 137°
2026-04-22 20:56 34.69391 -118.59081 11628 ft 325 kts 138°
2026-04-22 20:56 34.67660 -118.57385 11277 ft 316 kts 152°
2026-04-22 20:57 34.65719 -118.56178 11011 ft 311 kts 159°
2026-04-22 20:57 34.63771 -118.55053 10997 ft 309 kts 159°
2026-04-22 20:57 34.61840 -118.53907 10999 ft 309 kts 158°
2026-04-22 20:57 34.59922 -118.52775 10780 ft 312 kts 159°
2026-04-22 20:58 34.57974 -118.51635 10478 ft 310 kts 158°
2026-04-22 20:58 34.56040 -118.50504 10195 ft 308 kts 158°
2026-04-22 20:58 34.54108 -118.49377 9903 ft 308 kts 158°
2026-04-22 20:58 34.52195 -118.48254 9636 ft 304 kts 158°
2026-04-22 20:59 34.50293 -118.47139 9378 ft 303 kts 158°
2026-04-22 20:59 34.48396 -118.46034 9115 ft 300 kts 157°
2026-04-22 20:59 34.46521 -118.44941 8858 ft 297 kts 157°
2026-04-22 20:59 34.44664 -118.43855 8601 ft 294 kts 156°
2026-04-22 21:00 34.42834 -118.42783 8353 ft 291 kts 157°
2026-04-22 21:00 34.41004 -118.41719 8103 ft 291 kts 157°
2026-04-22 21:00 34.39184 -118.40661 7873 ft 289 kts 157°
2026-04-22 21:00 34.37372 -118.39606 7758 ft 289 kts 157°
2026-04-22 21:01 34.35584 -118.38564 7639 ft 287 kts 157°
2026-04-22 21:01 34.33789 -118.37519 7515 ft 287 kts 156°
2026-04-22 21:01 34.32022 -118.36492 7359 ft 285 kts 156°
2026-04-22 21:01 34.30241 -118.35452 7117 ft 278 kts 156°
2026-04-22 21:02 34.28577 -118.34482 6862 ft 254 kts 156°
2026-04-22 21:02 34.27024 -118.33583 6623 ft 242 kts 156°
2026-04-22 21:02 34.25523 -118.32713 6352 ft 237 kts 156°
2026-04-22 21:02 34.24039 -118.31858 6104 ft 236 kts 156°
2026-04-22 21:03 34.22568 -118.31002 6012 ft 233 kts 155°
2026-04-22 21:03 34.21214 -118.29933 5997 ft 237 kts 134°
2026-04-22 21:03 34.20435 -118.28195 5992 ft 237 kts 106°
2026-04-22 21:03 34.20057 -118.26263 6013 ft 237 kts 101°
2026-04-22 21:04 34.19706 -118.24329 6010 ft 235 kts 101°
2026-04-22 21:04 34.19361 -118.22421 6007 ft 237 kts 102°
2026-04-22 21:04 34.19009 -118.20477 6000 ft 236 kts 102°
2026-04-22 21:04 34.18279 -118.18726 6001 ft 236 kts 131°
2026-04-22 21:05 34.16912 -118.17697 6004 ft 228 kts 165°
2026-04-22 21:05 34.15412 -118.17662 5887 ft 210 kts 191°
2026-04-22 21:05 34.14017 -118.18014 5638 ft 200 kts 201°
2026-04-22 21:05 34.12946 -118.18994 5368 ft 194 kts 237°
2026-04-22 21:06 34.12608 -118.20515 5111 ft 190 kts 274°
2026-04-22 21:06 34.13097 -118.21968 4849 ft 189 kts 305°
2026-04-22 21:06 34.13952 -118.23172 4588 ft 189 kts 308°
2026-04-22 21:06 34.14640 -118.24522 4326 ft 188 kts 295°
2026-04-22 21:07 34.15000 -118.26019 4311 ft 186 kts 275°
2026-04-22 21:07 34.14882 -118.27551 4306 ft 187 kts 255°
2026-04-22 21:07 34.14288 -118.28951 4307 ft 189 kts 232°
2026-04-22 21:07 34.13279 -118.29970 4257 ft 192 kts 210°
2026-04-22 21:08 34.12036 -118.30469 4003 ft 185 kts 189°
2026-04-22 21:08 34.10792 -118.30385 3676 ft 176 kts 167°
2026-04-22 21:08 34.09748 -118.30630 3445 ft 156 kts 227°
2026-04-22 21:08 34.09300 -118.31766 3212 ft 152 kts 257°
2026-04-22 21:09 34.09208 -118.32980 3135 ft 139 kts 270°
2026-04-22 21:09 34.09275 -118.34112 3034 ft 137 kts 271°
2026-04-22 21:09 34.09308 -118.35425 2862 ft 171 kts 265°
2026-04-22 21:09 34.08850 -118.36762 2900 ft 180 kts 229°
2026-04-22 21:10 34.07891 -118.37808 2492 ft 192 kts 220°
2026-04-22 21:10 34.06912 -118.38860 2089 ft 180 kts 225°
2026-04-22 21:10 34.06113 -118.39847 1896 ft 157 kts 227°
2026-04-22 21:10 34.05364 -118.40695 1593 ft 130 kts 222°
2026-04-22 21:11 34.04730 -118.41393 1398 ft 119 kts 225°
2026-04-22 21:11 34.04135 -118.42135 1148 ft 127 kts 224°
2026-04-22 21:11 34.03548 -118.42841 852 ft 103 kts 222°
2026-04-22 21:11 34.03072 -118.43382 604 ft 90 kts 222°
2026-04-22 21:12 34.02622 -118.43894 407 ft 90 kts 225°
2026-04-22 21:12 34.02181 -118.44431 258 ft 92 kts 223°
2026-04-22 21:12 34.01741 -118.44944 129 ft 75 kts 223°
2026-04-22 21:12 34.01469 -118.45265 124 ft 17 kts 224°
2026-04-22 21:13 34.01490 -118.45317 125 ft 8 kts 325°
2026-04-22 21:13 34.01527 -118.45309 124 ft 9 kts 45°
2026-04-22 21:13 34.01580 -118.45263 126 ft 8 kts 335°
2026-04-22 21:13 34.01608 -118.45296 123 ft 0 kts 317°